{"data":{"norad_id":49954,"epoch":"2026-09-20T04:00:03.000096Z","epoch_age_seconds":43322,"freshness":"FRESH","line1":"1 49954U 21121A   26263.16670139  .00007460  00000+0  37946-3 0  9998","line2":"2 49954   0.2306 319.0829 0007204  74.9398 162.5712 15.11002517  5573","mean_motion":15.11002517,"eccentricity":0.0007204,"inclination_deg":0.2306,"raan_deg":319.0829,"arg_perigee_deg":74.9398,"mean_anomaly_deg":162.5712,"bstar":0.00037946,"rev_number":557,"period_min":95.300966331878,"perigee_km":528.16243933032,"apogee_km":538.12020913988,"semimajor_km":6911.2783242351,"source":"CELESTRAK","updated_at":"2026-09-20T09:00:47.176667Z"}}